Location: *
(44.1392°N, 4.8079°E)
Time: 22:27:18
(UTC+00:00)

FALCON 9 DEB - Pass Details

Date: 21 June 2021
Orbit: 358 x 373 km, 53.0° (Epoch: 01 August)

Event Time Altitude Azimuth Distance (km) Brightness Sun altitude
Rises 03:02:56 0° 298° (WNW) 2,246 6.6 -8.4°
Maximum altitude 03:07:55 32° 223° (SW) 664 3.5 -7.7°
Drops below altitude 10° 03:10:42 10° 157° (SSE) 1,368 5.5 -7.4°
Sets 03:12:49 0° 147° (SSE) 2,209 6.6 -7.1°
